User: anonymous   Login
Location: Caltech
(34.1382°N, 118.1253°W)
Time: 00:34:36
(UTC-08:00)
Language:

Iridium 14 - Orbit

View from above orbital plane
View from above orbital plane
View from above satellite
View from above satellite

Ground track
Ground track

The orbit data is extracted from the following two-line orbital elements,

1 25777U 99032A   16341.44957430  .00000108  00000-0  31363-4 0  9991
2 25777  86.3946 304.5119 0001963  85.7611 274.3809 14.34214609927056
Epoch (UTC): 06 December 2016 10:47:23
Eccentricity: 0.0001963
inclination: 86.3946°
perigee height: 776 km
apogee height: 779 km
right ascension of ascending node: 304.5119°
argument of perigee: 85.7611°
revolutions per day: 14.34214609
mean anomaly at epoch: 274.3809°
orbit number at epoch: 92705

The dashed part of the orbit path shows where the satellite is in the earth's shadow,  

DLR